| time (UTC) | temp C | wind direction | speed KPH | gust KPH | rain 1hr cm | rain 24hr cm | rain mn cm | humidity % | barometer mb |
| 20260904064742 | 20 | 176 | 4.8 | 12.9 | 0.00 | 0.00 | 0.00 | 57 | 1018.5 |
| 20260904063758 | 20 | 180 | 6.4 | 12.9 | 0.00 | 0.00 | 0.00 | 58 | 1018.5 |
| 20260904062758 | 19 | 178 | 6.4 | 12.9 | 0.00 | 0.00 | 0.00 | 59 | 1018.4 |
| 20260904061736 | 18 | 165 | 6.4 | 12.9 | 0.00 | 0.00 | 0.00 | 60 | 1018.5 |
| 20260904060740 | 18 | 180 | 4.8 | 11.3 | 0.00 | 0.00 | 0.00 | 60 | 1018.6 |
| 20260904055755 | 18 | 189 | 4.8 | 11.3 | 0.00 | 0.00 | 0.00 | 60 | 1018.7 |
| 20260904054820 | 18 | 214 | 3.2 | 8.0 | 0.00 | 0.00 | 0.00 | 60 | 1018.7 |
| 20260904053759 | 18 | 182 | 4.8 | 11.3 | 0.00 | 0.00 | 0.00 | 60 | 1018.7 |
| 20260904052801 | 18 | 244 | 3.2 | 9.7 | 0.00 | 0.00 | 0.00 | 60 | 1018.7 |
| 20260904051818 | 18 | 186 | 1.6 | 8.0 | 0.00 | 0.00 | 0.00 | 60 | 1018.8 |
| 20260904050827 | 18 | 171 | 3.2 | 4.8 | 0.00 | 0.00 | 0.00 | 60 | 1018.8 |
| 20260904045824 | 18 | 167 | 4.8 | 11.3 | 0.00 | 0.00 | 0.00 | 60 | 1018.7 |
| 20260904044757 | 18 | 180 | 4.8 | 9.7 | 0.00 | 0.00 | 0.00 | 60 | 1018.7 |
| 20260904043816 | 18 | 172 | 3.2 | 9.7 | 0.00 | 0.00 | 0.00 | 59 | 1018.7 |
| 20260904042832 | 18 | 178 | 1.6 | 6.4 | 0.00 | 0.00 | 0.00 | 59 | 1018.8 |
| 20260904041805 | 18 | 172 | 0.0 | 3.2 | 0.00 | 0.00 | 0.00 | 59 | 1019.0 |
| 20260904035611 | 19 | 178 | 0.0 | 0.0 | 0.00 | 0.00 | 0.00 | 58 | 1019.2 |
| 20260904034615 | 19 | 178 | 0.0 | 0.0 | 0.00 | 0.00 | 0.00 | 57 | 1019.1 |
| 20260904033622 | 19 | 178 | 0.0 | 0.0 | 0.00 | 0.00 | 0.00 | 57 | 1019.2 |
| 20260904032603 | 19 | 178 | 0.0 | 0.0 | 0.00 | 0.00 | 0.00 | 57 | 1019.4 |
| 20260904031538 | 19 | 178 | 0.0 | 0.0 | 0.00 | 0.00 | 0.00 | 57 | 1019.4 |
| 20260904030542 | 19 | 178 | 0.0 | 0.0 | 0.00 | 0.00 | 0.00 | 57 | 1019.4 |
| 20260904025529 | 19 | 199 | 1.6 | 9.7 | 0.00 | 0.00 | 0.00 | 56 | 1019.3 |
| 20260904024522 | 20 | 225 | 1.6 | 9.7 | 0.00 | 0.00 | 0.00 | 56 | 1019.3 |
| 20260904023534 | 20 | 207 | 1.6 | 4.8 | 0.00 | 0.00 | 0.00 | 56 | 1019.5 |
| 20260904022521 | 20 | 180 | 1.6 | 4.8 | 0.00 | 0.00 | 0.00 | 55 | 1019.7 |
| 20260904021525 | 20 | 178 | 1.6 | 6.4 | 0.00 | 0.00 | 0.00 | 55 | 1019.7 |
| 20260904015414 | 20 | 250 | 0.0 | 0.0 | 0.00 | 0.00 | 0.00 | 56 | 1020.0 |
| 20260904014437 | 20 | 250 | 0.0 | 0.0 | 0.00 | 0.00 | 0.00 | 56 | 1020.0 |
| 20260904013424 | 20 | 250 | 0.0 | 1.6 | 0.00 | 0.00 | 0.00 | 56 | 1020.1 |
| 20260904012400 | 20 | 223 | 0.0 | 0.0 | 0.00 | 0.00 | 0.00 | 56 | 1020.0 |
| 20260904011352 | 20 | 223 | 0.0 | 0.0 | 0.00 | 0.00 | 0.00 | 56 | 1020.1 |
| 20260904005149 | 20 | 223 | 0.0 | 0.0 | 0.00 | 0.00 | 0.00 | 57 | 1020.0 |
| 20260904004134 | 19 | 223 | 0.0 | 0.0 | 0.00 | 0.00 | 0.00 | 57 | 1020.1 |
| 20260904002019 | 18 | 213 | 0.0 | 4.8 | 0.00 | 0.00 | 0.00 | 58 | 1020.0 |
| 20260904001002 | 18 | 211 | 0.0 | 0.0 | 0.00 | 0.00 | 0.00 | 58 | 1020.0 |
| 20260904000006 | 18 | 211 | 0.0 | 0.0 | 0.00 | 0.00 | 0.00 | 57 | 1020.2 |
| 20260903234932 | 18 | 211 | 0.0 | 0.0 | 0.00 | 0.00 | 0.00 | 57 | 1020.3 |
| 20260903233940 | 19 | 211 | 0.0 | 0.0 | 0.00 | 0.00 | 0.00 | 57 | 1020.4 |
| 20260903232935 | 19 | 211 | 0.0 | 0.0 | 0.00 | 0.00 | 0.00 | 56 | 1020.6 |
| 20260903231951 | 19 | 211 | 0.0 | 0.0 | 0.00 | 0.00 | 0.00 | 56 | 1020.6 |
| 20260903231011 | 19 | 211 | 0.0 | 0.0 | 0.00 | 0.00 | 0.00 | 56 | 1020.6 |
| 20260903223737 | 20 | 211 | 0.0 | 0.0 | 0.00 | 0.00 | 0.00 | 52 | 1020.7 |
| 20260903222756 | 20 | 211 | 0.0 | 0.0 | 0.00 | 0.00 | 0.00 | 52 | 1020.7 |
| 20260903221742 | 21 | 211 | 0.0 | 0.0 | 0.00 | 0.00 | 0.00 | 51 | 1020.7 |
| 20260903220738 | 21 | 211 | 0.0 | 0.0 | 0.00 | 0.00 | 0.00 | 51 | 1020.7 |
| 20260903214607 | 21 | 232 | 1.6 | 8.0 | 0.00 | 0.00 | 0.00 | 49 | 1020.8 |
| 20260903213613 | 21 | 224 | 0.0 | 4.8 | 0.00 | 0.00 | 0.00 | 50 | 1020.6 |
| 20260903212559 | 21 | 278 | 0.0 | 0.0 | 0.00 | 0.00 | 0.00 | 50 | 1020.7 |
| 20260903211603 | 22 | 278 | 0.0 | 0.0 | 0.00 | 0.00 | 0.00 | 48 | 1020.6 |
| 20260903210543 | 22 | 278 | 0.0 | 0.0 | 0.00 | 0.00 | 0.00 | 46 | 1020.5 |
| 20260903205606 | 23 | 278 | 0.0 | 0.0 | 0.00 | 0.00 | 0.00 | 44 | 1020.5 |
| 20260903204537 | 23 | 278 | 0.0 | 0.0 | 0.00 | 0.00 | 0.00 | 43 | 1020.4 |
| 20260903203539 | 23 | 274 | 0.0 | 4.8 | 0.00 | 0.00 | 0.00 | 43 | 1020.3 |
| 20260903202553 | 23 | 252 | 0.0 | 3.2 | 0.00 | 0.00 | 0.00 | 42 | 1020.5 |
| 20260903201545 | 23 | 223 | 0.0 | 1.6 | 0.00 | 0.00 | 0.00 | 42 | 1020.5 |
| 20260903195417 | 23 | 221 | 0.0 | 3.2 | 0.00 | 0.00 | 0.00 | 40 | 1020.5 |
| 20260903194411 | 24 | 221 | 0.0 | 0.0 | 0.00 | 0.00 | 0.00 | 39 | 1020.5 |
| 20260903193422 | 24 | 215 | 0.0 | 3.2 | 0.00 | 0.00 | 0.00 | 39 | 1020.6 |
| 20260903192441 | 25 | 229 | 0.0 | 1.6 | 0.00 | 0.00 | 0.00 | 38 | 1020.6 |
| 20260903191448 | 25 | 227 | 0.0 | 3.2 | 0.00 | 0.00 | 0.00 | 38 | 1020.6 |
| 20260903190450 | 25 | 250 | 0.0 | 0.0 | 0.00 | 0.00 | 0.00 | 37 | 1020.7 |
| 20260903184339 | 25 | 272 | 1.6 | 11.3 | 0.00 | 0.00 | 0.00 | 37 | 1020.6 |
| 20260903182208 | 25 | 234 | 1.6 | 14.5 | 0.00 | 0.00 | 0.00 | 36 | 1020.3 |
| 20260903181203 | 25 | 263 | 1.6 | 11.3 | 0.00 | 0.00 | 0.00 | 35 | 1020.1 |
| 20260903180144 | 25 | 265 | 0.0 | 3.2 | 0.00 | 0.00 | 0.00 | 35 | 1020.1 |
| 20260903175112 | 26 | 255 | 0.0 | 4.8 | 0.00 | 0.00 | 0.00 | 35 | 1020.0 |
| 20260903170700 | 26 | 212 | 4.8 | 16.1 | 0.00 | 0.00 | 0.00 | 33 | 1019.9 |
| 20260903165719 | 26 | 266 | 4.8 | 14.5 | 0.00 | 0.00 | 0.00 | 32 | 1019.8 |
| 20260903163607 | 27 | 317 | 6.4 | 27.4 | 0.00 | 0.00 | 0.00 | 32 | 1019.8 |
| 20260903162623 | 27 | 261 | 6.4 | 29.0 | 0.00 | 0.00 | 0.00 | 31 | 1019.8 |
| 20260903161611 | 27 | 289 | 8.0 | 29.0 | 0.00 | 0.00 | 0.00 | 32 | 1019.7 |
| 20260903160626 | 27 | 284 | 9.7 | 20.9 | 0.00 | 0.00 | 0.00 | 31 | 1019.8 |
| 20260903155602 | 27 | 271 | 6.4 | 20.9 | 0.00 | 0.00 | 0.00 | 32 | 1019.8 |
| 20260903153446 | 27 | 317 | 9.7 | 25.7 | 0.00 | 0.00 | 0.00 | 31 | 1019.7 |
| 20260903152502 | 27 | 206 | 4.8 | 20.9 | 0.00 | 0.00 | 0.00 | 32 | 1019.6 |
| 20260903151513 | 27 | 220 | 6.4 | 20.9 | 0.00 | 0.00 | 0.00 | 32 | 1019.8 |
| 20260903145437 | 27 | 213 | 1.6 | 11.3 | 0.00 | 0.00 | 0.00 | 32 | 1020.0 |
| 20260903144440 | 27 | 268 | 4.8 | 19.3 | 0.00 | 0.00 | 0.00 | 32 | 1020.1 |
| 20260903143408 | 27 | 272 | 6.4 | 22.5 | 0.00 | 0.00 | 0.00 | 31 | 1020.1 |
| 20260903142401 | 27 | 311 | 1.6 | 25.7 | 0.00 | 0.00 | 0.00 | 31 | 1020.2 |
| 20260903141337 | 27 | 292 | 3.2 | 16.1 | 0.00 | 0.00 | 0.00 | 31 | 1020.2 |
| 20260903140337 | 27 | 217 | 6.4 | 25.7 | 0.00 | 0.00 | 0.00 | 31 | 1020.3 |
| 20260903134255 | 27 | 278 | 4.8 | 20.9 | 0.00 | 0.00 | 0.00 | 32 | 1020.4 |
| 20260903133320 | 27 | 257 | 4.8 | 17.7 | 0.00 | 0.00 | 0.00 | 32 | 1020.3 |
| 20260903131139 | 26 | 220 | 4.8 | 20.9 | 0.00 | 0.00 | 0.00 | 31 | 1020.6 |
| 20260903130147 | 26 | 291 | 6.4 | 20.9 | 0.00 | 0.00 | 0.00 | 32 | 1020.6 |
| 20260903125203 | 26 | 271 | 9.7 | 24.1 | 0.00 | 0.00 | 0.00 | 32 | 1020.7 |
| 20260903122957 | 26 | 175 | 4.8 | 19.3 | 0.00 | 0.00 | 0.00 | 31 | 1020.7 |
| 20260903121953 | 26 | 242 | 4.8 | 16.1 | 0.00 | 0.00 | 0.00 | 31 | 1020.7 |
| 20260903115827 | 26 | 269 | 6.4 | 27.4 | 0.00 | 0.00 | 0.00 | 31 | 1021.0 |
| 20260903114810 | 26 | 252 | 6.4 | 27.4 | 0.00 | 0.00 | 0.00 | 30 | 1021.1 |
| 20260903112714 | 26 | 266 | 6.4 | 19.3 | 0.00 | 0.00 | 0.00 | 31 | 1020.5 |
| 20260903111726 | 27 | 253 | 4.8 | 17.7 | 0.00 | 0.00 | 0.00 | 30 | 1020.8 |
| 20260903110733 | 27 | 273 | 4.8 | 20.9 | 0.00 | 0.00 | 0.00 | 30 | 1020.8 |
| 20260903105742 | 27 | 270 | 4.8 | 14.5 | 0.00 | 0.00 | 0.00 | 31 | 1020.9 |
| 20260903104718 | 26 | 174 | 4.8 | 16.1 | 0.00 | 0.00 | 0.00 | 33 | 1021.2 |
| 20260903102537 | 26 | 192 | 4.8 | 19.3 | 0.00 | 0.00 | 0.00 | 33 | 1021.5 |
| 20260903101545 | 25 | 178 | 1.6 | 8.0 | 0.00 | 0.00 | 0.00 | 36 | 1021.6 |
| 20260903100549 | 24 | 177 | 1.6 | 11.3 | 0.00 | 0.00 | 0.00 | 36 | 1021.8 |
| 20260903095548 | 23 | 159 | 4.8 | 11.3 | 0.00 | 0.00 | 0.00 | 38 | 1022.2 |
| 20260903094529 | 24 | 187 | 3.2 | 12.9 | 0.00 | 0.00 | 0.00 | 37 | 1022.2 |
| 20260903093506 | 25 | 173 | 4.8 | 17.7 | 0.00 | 0.00 | 0.00 | 36 | 1022.2 |
| 20260903092515 | 25 | 244 | 4.8 | 17.7 | 0.00 | 0.00 | 0.00 | 35 | 1022.2 |
| 20260903091512 | 23 | 219 | 4.8 | 14.5 | 0.00 | 0.00 | 0.00 | 39 | 1022.2 |
| 20260903090529 | 23 | 233 | 6.4 | 20.9 | 0.00 | 0.00 | 0.00 | 38 | 1022.1 |
| 20260903085505 | 23 | 214 | 9.7 | 20.9 | 0.00 | 0.00 | 0.00 | 38 | 1022.1 |
| 20260903084455 | 23 | 172 | 4.8 | 14.5 | 0.00 | 0.00 | 0.00 | 39 | 1022.1 |
| 20260903083423 | 23 | 176 | 4.8 | 14.5 | 0.00 | 0.00 | 0.00 | 39 | 1022.2 |
| 20260903081256 | 21 | 250 | 3.2 | 12.9 | 0.00 | 0.00 | 0.00 | 44 | 1022.6 |
| 20260903080242 | 21 | 204 | 4.8 | 12.9 | 0.00 | 0.00 | 0.00 | 44 | 1022.3 |
| 20260903075256 | 21 | 163 | 3.2 | 16.1 | 0.00 | 0.00 | 0.00 | 45 | 1022.0 |
| 20260903074221 | 20 | 179 | 3.2 | 16.1 | 0.00 | 0.00 | 0.00 | 47 | 1022.3 |
| 20260903073148 | 20 | 237 | 1.6 | 9.7 | 0.00 | 0.00 | 0.00 | 52 | 1022.2 |
| 20260903072144 | 18 | 202 | 1.6 | 9.7 | 0.00 | 0.00 | 0.00 | 55 | 1022.5 |
| 20260903071206 | 18 | 256 | 3.2 | 8.0 | 0.00 | 0.00 | 0.00 | 55 | 1022.6 |
| 20260903070210 | 17 | 180 | 1.6 | 8.0 | 0.00 | 0.00 | 0.00 | 58 | 1022.4 |